Terminal Aerodrome Forecast
Issued by NWS

Home | Current Version | Previous Version | Text Only | Print | Product List | Glossary On
Versions: 1 2 3 4 5 6 7 8 9 10 11 12 13
000
FTUS43 KFGF 041120
TAFDVL
TAF
KDVL 041120Z 0412/0512 VRB04KT P6SM SKC
     FM041600 12006KT P6SM FEW080
     FM050100 10006KT P6SM SKC
     FM050600 11007KT P6SM OVC250
      AMD LTD TO CLD VIS AND WIND=

USA.gov is the U.S. government's official web portal to all federal, state and local government web resources and services.